Miscellaneous Local Product
Issued by NWS North Platte, NE

Home | Current Version | Previous Version | Text Only | Print | Product List | Glossary Off
Versions: 1 2 3 4 5 6 7 8 9 10 11 12 13 14 15 16 17 18 19 20 21 22 23 24 25 26 27 28 29 30 31 32 33 34 35 36 37 38 39 40 41 42 43 44 45 46 47 48 49 50

000
AXUS43 KLBF 310510
MISLBF


WESTERN AND NORTH CENTRAL NEBRASKA HOURLY WEATHER ROUNDUP
NATIONAL WEATHER SERVICE NORTH PLATTE NE
1200 AM CDT MON AUG 31 2015

NOTE: "FAIR" INDICATES FEW OR NO CLOUDS BELOW 12,000 FEET WITH NO
SIGNIFICANT WEATHER AND/OR OBSTRUCTIONS TO VISIBILITY.

NOTE: STATIONS NOT REPORTING VARIABLES SUCH AS SKY/WEATHER OR
PRESSURE ARE PROVIDED BY THE NEBRASKA DEPARTMENT OF
ROADS...RAWS...AND APRS NETWORKS...AND ARE NOT UNDER
NATIONAL WEATHER SERVICE QUALITY CONTROL.

...OBSERVATIONS IN AND NEAR THE EASTERN PANHANDLE OF NEBRASKA...

CITY           SKY/WX    TMP DP  RH WIND       PRES   REMARKS
PINE RIDGE     PTCLDY    80  45  28 S12       29.81S
CHADRON        PTCLDY    70  49  47 CALM      29.81S
ALLIANCE       CLEAR     74  49  41 S14       29.87S
SIDNEY         CLEAR     71  49  45 SW5       29.97R
CRESCENT LAKE    N/A     76  46  33 S8G15       N/A
BIG SPRINGS      N/A     73  43  33 S13         N/A
$$

...OBSERVATIONS IN NORTH CENTRAL NEBRASKA...

CITY           SKY/WX    TMP DP  RH WIND       PRES   REMARKS
VALENTINE      CLEAR     74  58  57 S18G29    29.83R
THEDFORD       CLEAR     72  59  64 S20G26    29.89S
AINSWORTH      CLEAR     71  60  69 S18G28    29.86S
O`NEILL        PTCLDY    68  66  92 S15       29.89S
ORD            CLEAR     67  63  87 S9        29.91S
BROKEN BOW     CLEAR     68  62  81 S14G25    29.93S
SPRINGVIEW       N/A     71  61  71 CALM        N/A
SARGENT          N/A     66  63  89 CALM        N/A
CHAMBERS         N/A     67  65  92 S7          N/A
EWING            N/A     68  63  84 S6G13       N/A
$$

...OBSERVATIONS IN SOUTHWEST NEBRASKA AND FAR NORTHEAST COLORADO...

CITY           SKY/WX    TMP DP  RH WIND       PRES   REMARKS
WRAY           FAIR      75  39  27 S17G26    29.94S
HOLYOKE        FAIR      73  43  33 S12       29.94R
IMPERIAL       CLEAR     73  40  30 S14       29.93S
OGALLALA       CLEAR     73  40  29 S14       29.90R
NORTH PLATTE   CLEAR     69  56  62 SE10      29.91S
MCCOOK         CLEAR     68  50  52 SE8       29.93F
LEXINGTON      CLEAR     68  64  86 S13       29.94F
PAXTON           N/A     73  46  38 S14         N/A
BRADY            N/A     67  60  77 CALM        N/A
CALLAWAY         N/A     63  61  94 S12         N/A
$$

...OBSERVATIONS IN CENTRAL LINCOLN COUNTY AREA...

CITY           SKY/WX    TMP DP  RH WIND       PRES   REMARKS
N.P. AIRPORT   CLEAR     69  56  62 SE10      29.91S
N.P. DOWNTOWN    N/A     70  58  64 SE5G12      N/A
N.P. HILLCREST   N/A     70  57  63 S12G18      N/A
$$

...SOME OBSERVATIONS FROM AROUND THE REGION...

CITY           SKY/WX    TMP DP  RH WIND       PRES   REMARKS
DENVER         MOCLDY    78  41  26 SW9       30.01R
LARAMIE        MOCLDY    61  46  57 S9        30.19R
CHEYENNE       MOCLDY    69  46  43 NW9       30.09S
SCOTTSBLUFF    CLOUDY    75  51  43 MISG      29.88R
RAPID CITY     PTCLDY    71  57  61 NW10      29.75F
PIERRE         CLEAR     75  57  53 SE14      29.70S
WINNER         FAIR      77  59  53 S23G32    29.77R
SIOUX FALLS    CLOUDY    67  64  90 S14       29.90F
OMAHA          PTCLDY    69  67  93 S7        29.97S
GRAND ISLAND   FAIR      67  64  90 S14       29.96S
KANSAS CITY    MOCLDY    75  70  84 SE7       29.97F
WICHITA        CLEAR     73  68  84 SE8       29.95F
HAYS           CLEAR     66  55  68 SE9       29.96F
LIBERAL        CLEAR     68  48  49 SE9       29.98F
GOODLAND       CLEAR     65  46  50 S12       29.98S
$$



USA.gov is the U.S. government's official web portal to all federal, state and local government web resources and services.